Regional Weather Roundup
Issued by NWS New Orleans/Baton Rouge, LA

Home | Current Version | Previous Version | Graphics & Text | Print | Product List | Glossary On
Versions: 1 2 3 4 5 6 7 8 9 10 11 12 13 14 15 16 17 18 19 20 21 22 23 24 25 26 27 28 29 30 31 32 33 34 35 36 37 38 39 40 41 42 43 44 45 46 47 48 49 50
578
ASUS44 KLIX 281011
RWRLIX
NEW ORLEANS REGIONAL WEATHER ROUNDUP
NATIONAL WEATHER SERVICE NEW ORLEANS LA
500 AM CDT SAT MAR 28 2015

NOTE: "FAIR" INDICATES FEW OR NO CLOUDS BELOW 12,000 FEET WITH NO
      SIGNIFICANT WEATHER AND/OR OBSTRUCTIONS TO VISIBILITY.
      SKY/WX - SKY CONDITION AND SIGNIFICANT WEATHER.
      TMP - AIR TEMPERATURE.     DP    - DEWPOINT TEMPERATURE.
      RH  - RELATIVE HUMIDITY.   PRES  - PRESSURE.
      HI  - HEAT INDEX.          WCI   - WIND CHILL INDEX.

*  THESE STATIONS ARE NOT NWS OR FAA STATIONS AND ARE NOT UNDER
   NWS QUALITY CONTROL.

LAZ038-040-048-061>063-065>067-069-281100-
SOUTHEAST LOUISIANA

CITY           SKY/WX    TMP DP  RH WIND       PRES   REMARKS
N.O. AUDUBON     N/A     52 N/A N/A MISG        N/A
N.O. INTL ARPT CLEAR     53  38  56 NE8       30.17S
N.O. LAKEFRONT CLEAR     55  40  56 NE15      30.18S
SLIDELL        CLEAR     42  39  89 CALM      30.17F
BATON ROUGE    CLEAR     44  41  89 NE3       30.18R
BOOTHVILLE     PTCLDY    57  45  64 NE7       30.17R
BELLE CHASSE   CLEAR     47  39  74 NE3       30.17R
BOGALUSA*        N/A     42  38  87 CALM      30.20R
GALLIANO*      SUNNY     55  44  66 MISG      30.18R
NEW ROADS*       N/A     46  39  76 E3        30.18S
GONZALES*        N/A     48  39  71 CALM      30.17S
HAMMOND*       CLEAR     45  37  76 CALM      30.19F
HOUMA*         CLEAR     47  43  87 NE5       30.17R
PORT FOURCHON* SUNNY     59  45  58 NE14      30.19R

$$

MSZ070-080>082-281100-
SOUTHERN MISSISSIPPI

CITY           SKY/WX    TMP DP  RH WIND       PRES   REMARKS
MCCOMB         CLEAR     39  37  92 CALM      30.17S
GULFPORT       CLEAR     46  36  68 N3        30.18R
BILOXI         CLEAR     46  37  71 NE6       30.18R
PASCAGOULA     CLEAR     40  38  93 CALM      30.19R

$$

COASTAL OBSERVATIONS
LAKE AND NEARSHORE STATIONS

STATION/POSITION TIME  TEMP    WIND        PRES    WAVE
                       AIR SEA DIR/SP/G            HT/PER
                 (UTC) (F)     (DEG/KT/KT) (MB)    (FT/S)
PASCAGOULA       0900   48      10/  4/  6 1021.0
WAVELAND YACHT   0900   50 63   30/ 10/ 12 1021.5
GRAND ISLE       0900   57 67   60/ 11/ 13 1020.4
SOUTHWEST PASS   0900   56 52   40/ 11/ 12 1020.8
NEW CANAL        0900   56      40/ 14/ 16 1021.8
SHELL BEACH      0900   56 66   50/ 15/ 17 1021.1

OFFSHORE STATIONS

STATION/POSITION TIME  TEMP    WIND        PRES    WAVE
                       AIR SEA DIR/SP/G            HT/PER
                 (UTC) (F)     (DEG/KT/KT) (MB)    (FT/S)
64 S DAUPHIN ISL 0950   59 71   20/ 12/ 16 1021.2    4/ 5

$$




USA.gov is the U.S. government's official web portal to all federal, state and local government web resources and services.